Lid_Strength_Index
7 7 7 7 7 7 6 5 5 4 4 4 3 3 3 4 4 3 3 3 3 3
6 7 7 7 6 6 5 4 5 5 5 4 4 3 3 3 3 3 3 3 3 3
7 6 6 6 6 6 6 5 5 5 4 4 4 3 4 4 3 3 3 3 3 3
7 6 6 7 6 6 6 5 5 4 4 3 4 3 4 4 4 4 4 4 5 5
8 8 8 8 7 6 6 5 5 4 4 4 4 5 5 5 4 4 5 5 5 5
8 8 7 7 7 6 6 5 5 5 5 5 5 4 5 4 4 5 5 5 6 6
8 8 8 8 8 7 7 7 7 7 6 6 5 5 4 4 5 6 5 5 6 6
8 8 8 9 9 9 8 8 8 8 7 7 6 5 5 5 6 6 6 6 6 6
9 9 9 9 9 9 9 9 9 8 8 8 7 6 6 6 7 5 6 6 6 7
10 10 10 10 10 10 10 10 10 10 9 9 9 7 7 6 7 6 6 7 7 8
11 11 11 11 11 11 10 10 8 10 10 10 8 7 8 7 7 7 7 8 8 8
11 11 11 11 11 11 10 9 8 8 9 9 7 7 8 8 8 9 9 8 7 6
11 12 12 11 11 9 9 9 8 8 7 8 8 9 8 9 10 10 9 8 7 6
11 11 10 10 10 10 9 9 9 8 8 8 8 9 10 10 9 9 8 8 7 6